TimeEST,TemperatureF,Dew PointF,Humidity,Sea Level PressureIn,VisibilityMPH,Wind Direction,Wind SpeedMPH,Gust SpeedMPH,PrecipitationIn,Events,Conditions,WindDirDegrees,DateUTC
12:53 AM,37.9,27.0,65,30.43,10.0,NNE,8.1,-,N/A,,Clear,20,2012-11-17 05:53:00
1:53 AM,37.9,26.1,62,30.45,10.0,NE,5.8,-,N/A,,Clear,40,2012-11-17 06:53:00
2:53 AM,37.0,26.1,65,30.46,10.0,NNE,8.1,-,N/A,,Clear,30,2012-11-17 07:53:00
3:53 AM,37.0,27.0,67,30.47,10.0,NNE,8.1,-,N/A,,Clear,30,2012-11-17 08:53:00
4:53 AM,36.0,27.0,70,30.50,10.0,NNE,5.8,-,N/A,,Clear,20,2012-11-17 09:53:00
5:53 AM,37.0,28.0,70,30.52,10.0,NNE,9.2,-,N/A,,Clear,20,2012-11-17 10:53:00
6:53 AM,37.9,30.0,73,30.54,10.0,NNE,11.5,-,N/A,,Clear,20,2012-11-17 11:53:00
7:53 AM,41.0,30.9,67,30.57,10.0,NNE,13.8,-,N/A,,Clear,30,2012-11-17 12:53:00
8:53 AM,44.1,30.9,60,30.58,10.0,NE,12.7,21.9,N/A,,Clear,40,2012-11-17 13:53:00
9:53 AM,46.0,32.0,58,30.60,10.0,NE,12.7,21.9,N/A,,Clear,40,2012-11-17 14:53:00
10:53 AM,48.0,33.1,56,30.61,10.0,NE,12.7,-,N/A,,Clear,50,2012-11-17 15:53:00
11:53 AM,48.9,32.0,52,30.59,10.0,NE,13.8,19.6,N/A,,Clear,40,2012-11-17 16:53:00
12:53 PM,51.1,32.0,48,30.58,10.0,NNE,11.5,-,N/A,,Clear,30,2012-11-17 17:53:00
1:53 PM,51.1,30.9,46,30.58,10.0,NNE,4.6,-,N/A,,Clear,30,2012-11-17 18:53:00
2:53 PM,51.1,28.9,43,30.58,10.0,NE,8.1,-,N/A,,Clear,40,2012-11-17 19:53:00
3:53 PM,50.0,30.0,46,30.59,10.0,NE,4.6,-,N/A,,Clear,40,2012-11-17 20:53:00
4:53 PM,48.0,30.0,50,30.60,10.0,Calm,Calm,-,N/A,,Clear,0,2012-11-17 21:53:00
5:53 PM,44.1,30.9,60,30.60,10.0,NNE,3.5,-,N/A,,Clear,20,2012-11-17 22:53:00
6:53 PM,42.1,30.9,65,30.61,10.0,Calm,Calm,-,N/A,,Clear,0,2012-11-17 23:53:00
7:53 PM,39.0,30.9,73,30.62,10.0,North,4.6,-,N/A,,Clear,360,2012-11-18 00:53:00
8:53 PM,39.0,30.9,73,30.62,10.0,North,4.6,-,N/A,,Clear,10,2012-11-18 01:53:00
9:53 PM,37.9,30.9,76,30.63,9.0,Calm,Calm,-,N/A,,Clear,0,2012-11-18 02:53:00
10:53 PM,37.0,30.9,79,30.63,9.0,North,5.8,-,N/A,,Clear,10,2012-11-18 03:53:00
11:53 PM,37.0,30.9,79,30.63,9.0,North,4.6,-,N/A,,Clear,10,2012-11-18 04:53:00